Lid_Strength_Index
-1 -1 -1 2 8 7 11 10 7 8 8 5 5 6 7 6 8 10 1 -0 -0 -0 -1 -1 -1 -2 -2 -2 -2 -2 -2 -2 -2 -2 -2 -1 -1 -2 -2 -2 -2 -2 -2 -2 -2 -2 -2 -2 -2
-1 0 1 4 9 11 12 8 9 7 6 4 5 5 6 8 4 3 2 -0 -1 -1 -1 -1 -1 -2 -2 -2 -2 -2 -2 -2 -2 -1 -2 -2 -1 -2 -2 -2 -2 -2 -2 -2 -2 -2 -1 -2 -2
-0 0 5 6 8 12 12 8 7 6 5 5 6 4 5 7 3 2 0 -0 -1 -1 -1 -1 -1 -2 -2 -2 -2 -2 -2 -2 -2 -1 -2 -1 -1 -1 -1 -2 -2 -2 -1 -2 -2 -2 -2 -1 -1
1 3 4 8 11 9 9 7 6 6 5 4 5 7 4 2 2 1 -0 -0 -0 -1 -1 -1 -2 -1 -2 -2 -2 -2 -2 -2 -2 -2 -2 -1 -1 -1 -1 -1 -2 -2 -1 -1 -1 -1 -1 -1 -1
1 3 7 9 10 8 7 6 6 7 6 6 5 7 6 2 1 0 0 -0 -0 -0 -1 -1 -2 -2 -2 -2 -2 -2 -2 -2 -2 -2 -2 -1 -1 -1 -1 -1 -1 -1 -1 -1 -1 -1 -1 -1 -1
4 4 8 11 9 8 7 5 6 6 6 5 5 6 5 1 1 1 -0 -0 -1 -0 -1 -1 -1 -2 -2 -2 -2 -2 -2 -2 -2 -2 -2 -1 -1 -1 -2 -1 -1 -1 -1 -1 -1 -1 -1 -1 -1
6 6 9 9 9 8 7 5 6 6 6 6 4 7 5 3 1 0 -0 -0 -1 -1 -1 -1 -1 -2 -2 -2 -2 -2 -2 -2 -2 -2 -2 -2 -1 -1 -2 -1 -1 -1 -1 -1 -1 -1 -1 -1 -1
4 5 8 8 9 9 6 6 5 6 6 3 3 7 7 3 1 0 0 -0 -0 -1 -1 -1 -2 -2 -2 -2 -1 -2 -2 -2 -2 -2 -2 -2 -2 -2 -2 -2 -2 -1 -1 -1 -1 -1 -1 -1 -1
3 6 8 8 8 7 6 6 5 4 5 5 4 4 3 1 1 1 1 1 0 0 -1 -1 -1 -1 -2 -2 -2 -2 -2 -2 -2 -2 -2 -2 -1 -1 -1 -2 -1 -1 -1 -1 -1 -1 -1 -1 -1
5 7 7 5 6 6 6 6 6 6 6 6 5 3 2 2 2 2 2 2 1 1 0 -1 -1 -1 -1 -1 -2 -2 -2 -2 -2 -2 -2 -2 -2 -1 -1 -2 -2 -2 -1 -1 -1 -1 -1 -1 -1
5 7 5 5 5 5 6 6 5 6 7 5 6 5 3 2 2 2 2 2 1 1 0 -0 -1 -1 -1 -1 -2 -3 -2 -2 -2 -2 -1 -2 -2 -1 -2 -2 -2 -2 -2 -2 -2 -1 -2 -1 -1
6 5 5 5 5 5 6 5 6 5 5 4 3 3 3 3 3 2 2 2 1 1 0 -0 -1 -1 -1 -1 -1 -1 -2 -2 -2 -2 -2 -1 -2 -2 -2 -1 -2 -2 -2 -2 -2 -1 -2 -1 -1
5 5 4 4 4 5 5 6 6 6 4 3 3 3 3 3 2 2 1 1 1 1 0 -0 -1 -1 -1 -1 -1 -1 -2 -2 -2 -2 -2 -1 -1 -1 -2 -2 -2 -2 -2 -1 -1 -1 -1 -1 -1
4 4 4 4 4 4 5 5 5 5 3 4 4 4 3 3 3 2 2 2 1 1 0 -0 -0 -1 -1 -1 -1 -1 -1 -1 -2 -2 -2 -2 -1 -1 -1 -1 -2 -1 -1 -1 -1 -1 -1 -1 -1
4 6 5 5 5 5 5 6 6 4 4 4 4 4 3 3 2 2 2 2 1 1 0 0 -0 -1 -1 -1 -1 -1 -1 -1 -2 -2 -2 -2 -2 -1 -2 -1 -0 -1 -2 -2 -1 -1 -1 -1 -1
6 6 8 5 5 5 5 8 5 4 4 5 4 4 4 3 2 2 1 1 1 0 0 -0 -0 -0 -1 -1 -1 -1 -1 -1 -2 -1 -2 -2 -2 -2 -2 -0 -1 -2 -1 -1 -1 -1 -0 -0 -0
6 8 8 7 5 5 6 7 5 4 4 5 4 4 4 3 3 2 1 1 1 0 0 0 0 0 -0 -1 -1 -1 -2 -2 -0 -1 -1 -1 -2 -1 -2 -1 -1 -2 -1 -1 -1 -0 -0 0 0
8 8 7 7 6 5 6 6 4 4 4 5 4 4 4 4 3 2 1 1 1 0 0 0 1 0 -1 -1 -1 -1 -1 -1 -1 -1 -1 -1 -1 -1 -2 -1 -2 -1 -1 -0 -0 -1 -1 -0 -0
7 7 7 6 5 6 6 6 5 4 4 4 4 4 4 4 2 2 1 1 1 1 1 1 1 0 -0 0 1 1 1 0 -0 -1 -1 -2 -2 -2 -1 -0 -1 -1 -1 -1 -1 -0 0 0 -1
6 7 7 6 5 6 6 6 5 4 5 4 4 4 4 3 3 2 2 1 1 1 1 1 0 0 -0 0 0 0 0 -0 -0 -1 -1 -2 -2 -2 -2 -0 -0 -1 -1 -1 -1 -1 1 0 -0
6 7 7 7 6 5 6 7 7 5 5 4 4 4 3 3 4 3 2 2 1 1 1 1 0 0 -0 -0 -0 0 -0 -0 0 0 -0 -0 -1 -2 -2 -1 -1 -1 -1 -0 -0 -0 0 2 0
8 6 6 7 7 9 6 10 7 6 6 5 4 4 4 3 3 3 3 2 2 1 1 0 0 0 -0 -0 0 0 1 1 0 0 -0 -0 -1 -1 -1 -1 -1 -1 -0 -0 -1 -0 -0 0 1
7 6 6 6 7 8 8 9 8 6 7 6 5 5 4 3 3 3 2 2 1 1 1 1 0 0 -0 -0 -0 1 1 1 -0 0 -0 -0 -1 -1 -1 -1 -1 -1 -1 -0 -1 -1 -0 -0 1
5 6 6 6 7 10 8 9 9 8 8 6 5 5 4 3 3 2 2 2 2 1 1 1 1 1 0 0 0 0 1 1 1 0 0 0 0 -0 -1 -1 -1 -1 -1 -1 -0 -1 -1 -0 -0
5 7 10 11 11 11 8 9 8 7 6 6 6 5 4 3 3 3 2 2 2 2 1 1 1 1 0 0 0 0 0 0 1 0 1 0 1 0 -0 -1 -1 -1 -1 -1 -1 -1 -0 -0 0
7 7 9 14 11 10 8 10 9 6 5 5 5 4 4 4 3 3 3 2 2 2 1 1 1 1 1 0 0 0 0 0 1 0 0 0 0 0 -1 -1 -1 -1 -1 -1 -0 -1 -0 -0 0
7 8 6 9 8 10 8 8 6 6 6 5 5 5 5 4 3 3 3 3 2 2 1 1 1 1 1 1 0 0 0 0 0 -0 -0 0 -0 -0 -1 -1 -1 -1 -1 -1 -0 -0 -0 -0 -0
6 5 9 8 13 14 10 10 9 8 7 6 6 6 5 4 4 3 3 2 2 1 1 1 1 1 1 1 0 0 0 -0 -0 -0 -0 0 -1 -1 -0 -0 -0 -0 -0 -1 -1 -0 -0 -0 0
7 7 7 7 9 12 13 10 7 7 7 7 6 5 5 4 4 3 3 2 2 1 1 1 1 1 1 0 0 0 0 0 0 0 -0 -0 -0 -0 -0 -0 -0 -0 0 -0 0 -0 -0 0 0
6 7 7 10 11 9 10 10 6 6 6 6 5 5 4 4 4 3 3 2 2 2 1 1 1 1 1 0 0 1 0 0 1 1 0 0 -0 -0 -0 -0 0 0 0 -0 0 0 0 0 1